Location: ?
(35.2180°N, 139.6392°E)
Time: 06:35:28
(UTC+00:00)

Cosmos 1709 Rocket - Pass Details

Date: 05 August 2024
Orbit: 948 x 1000 km, 82.9° (Epoch: 12 September)

Event Time Altitude Azimuth Distance (km) Brightness Sun altitude
Rises 18:54:36 0° 357° (N) 3,642 7.4 -11.8°
Reaches altitude 10° 18:57:07 10° 0° (N) 2,699 6.7 -11.3°
Maximum altitude 19:03:16 65° 82° (E) 1,058 4.5 -10.3°
Drops below altitude 10° 19:09:26 10° 164° (SSE) 2,719 6.2 -9.2°
Sets 19:11:58 0° 167° (SSE) 3,671 6.9 -8.7°
